Location: Rounton
(54.4000°N, 1.3500°W)
Time: 02:58:29
(UTC+01:00)

Vanguard 3 - Pass Details

Date: 25 April 2024
Orbit: 509 x 3233 km, 33.3° (Epoch: 23 May)

Event Time Altitude Azimuth Distance (km) Brightness Sun altitude
Exits shadow 04:19:14 11° 218° (SW) 5,524 10.7 -10.6°
Maximum altitude 04:30:08 25° 174° (S) 3,697 10.2 -9.4°
Drops below altitude 10° 04:38:18 10° 126° (SE) 3,916 10.9 -8.5°
Sets 04:41:39 0° 112° (ESE) 4,514 11.4 -8.1°
